Location: Seattle
(47.6064°N, 122.3308°W)
Time: 01:47:14
(UTC-08:00)

A-11 Canister half - Pass Details

Date: 27 November 2020
Orbit: 1524 x 1684 km, 47.3° (Epoch: 27 January)

Event Time Altitude Azimuth Distance (km) Brightness Sun altitude
Rises 05:20:45 0° 208° (SSW) 4,925 11.5 -21.5°
Reaches altitude 10° 05:24:14 10° 200° (SSW) 3,939 11.0 -21.0°
Maximum altitude 05:33:09 37° 138° (SE) 2,398 10.4 -19.5°
Drops below altitude 10° 05:41:57 10° 76° (ENE) 3,892 12.1 -18.0°
Sets 05:45:21 0° 69° (ENE) 4,861 12.6 -17.5°
